GFSNW_prec_radar_000.txt.gz
Reflectivity
-20 -20 -20 -20 -20 -20 -20 -20 -20 -20 -20 -20 -20 -20 -20 -20 -20 -20 -20 -20 -20 -20 -20 -20 -20 -20 -20 -20 -20 -20 -20 -20 -20 -20 -20 -20 -20 -20 -20 -20 -20 -20 -19 -20
-20 -20 -20 -20 -20 -20 -20 -20 -20 -20 -20 2 -20 -20 -20 -20 -20 -20 -20 -20 -20 -20 -20 -20 -20 -20 -20 -20 -20 -20 -20 -10 -15 -20 -20 -20 -20 -20 -20 -20 -20 -20 7 -20
-20 -20 -20 -20 -20 -20 -20 -20 19 -20 -20 -20 -20 -20 -20 -20 -20 -20 -20 -20 -20 -20 -20 -20 -20 -20 -20 -20 -20 -20 -20 -20 -20 -20 -20 -20 -20 -20 -20 -20 -19 -20 -14 -20
-20 -20 -20 -20 -20 -20 -20 -20 -20 -20 -20 -20 -20 -20 -20 -20 -20 -20 -20 -20 -20 -20 -20 -20 -20 -20 -20 -20 -20 -20 -20 -20 -20 -20 -20 -20 -20 -20 -20 -20 -20 -17 -20 -20
-20 -20 -20 -20 -20 -20 -20 -20 -20 -20 -20 -20 -20 -20 -20 -20 -20 -20 -20 -20 -20 -20 -20 -20 -20 -20 -20 -20 -20 -20 -20 -12 -20 -20 -20 -20 -4 -20 -20 -20 -20 -20 -20 -20
-20 -20 -20 -20 -20 -20 -20 -20 -20 -20 -20 -20 -20 -20 -20 -20 -20 -20 -20 -20 -20 -20 -20 -20 -20 -20 -20 -20 -20 -20 -9 -20 4 -20 -20 -20 -18 -20 -20 -20 -20 -20 -20 -20
-20 3 -5 -20 -20 -20 -20 -20 -20 23 -2 -20 -20 -20 -20 -20 -20 -20 -20 -20 -15 -19 -20 -20 -20 -20 -20 -20 -20 -20 -20 -8 -9 -20 -9 6 -20 -20 -20 -20 -20 -20 -20 -20
-20 -20 -20 -20 -20 -20 -20 -20 -20 -8 25 -20 -20 -20 -20 -20 -20 -20 -20 -20 -20 -20 -20 4 15 4 -15 -20 -20 -20 -20 -20 -7 3 -20 -20 -20 -20 -20 -20 -20 -20 -20 -20
-20 -20 -20 -20 -17 -20 -20 -20 -20 -20 22 4 -20 -20 -20 -20 -20 -20 -20 -20 -20 -20 -20 5 18 2 -20 -20 -20 -20 -20 -20 5 9 2 -20 -20 -20 -20 -20 -18 11 0 9
-20 -20 -15 -20 -3 -9 -20 -20 -20 -20 13 -20 -20 -20 -10 -20 -20 -20 -20 -20 -4 -20 8 16 2 -3 4 7 -17 -8 -20 -12 -17 -20 -3 1 -20 -20 -20 -15 3 -20 16 14
-20 -20 -20 -20 -20 10 -15 -20 -20 -5 5 -20 -20 -20 -20 -20 -20 -20 -20 -18 -17 -4 13 15 -19 6 -2 -20 -20 4 10 18 8 12 11 3 -20 -20 -2 -3 -6 -20 -15 14
-20 -20 -20 -10 -20 -20 7 -17 -20 -20 -14 10 -20 -20 -20 -20 -20 -20 7 3 -20 12 0 9 9 16 12 -8 -11 -1 9 -15 -17 -3 -18 -20 -20 -11 23 -20 22 19 22 -12
-20 -20 -20 -20 -15 -17 -12 -11 -20 -7 11 11 11 -16 -20 -20 -20 -20 18 -20 -19 -20 -18 17 23 10 13 16 6 -3 13 23 -5 -16 -20 -20 2 4 -13 23 10 17 20 24
-20 -20 -20 -20 -20 -0 17 -16 23 -5 21 22 1 -15 -20 -20 -20 -20 -20 -20 11 -17 17 10 -2 8 -1 4 7 9 6 -12 16 23 5 -20 17 4 19 18 18 20 8 12
10 -7 -20 -20 10 18 21 13 11 21 7 5 -1 -12 -20 -20 -20 -20 -20 -20 -17 15 21 22 15 2 12 10 8 13 21 12 18 10 -16 21 -3 11 -20 15 18 17 13 -5
21 22 19 4 -1 32 32 26 23 19 22 31 24 3 6 -7 -20 -20 -20 -20 6 14 11 -0 -6 -9 14 33 26 6 -12 -6 2 13 5 7 -19 -20 10 19 17 17 17 9
5 25 29 26 12 29 27 26 10 20 11 32 31 25 -5 4 -17 -20 -15 -8 9 10 10 5 8 20 26 14 10 -20 -6 -12 -20 -12 19 -3 -20 7 -6 -7 -20 -20 -20 -20
12 14 21 28 27 32 30 31 28 26 28 35 30 22 -7 -20 -20 -20 -20 3 -8 -19 -4 -2 -20 -7 6 9 -20 -20 -20 -20 -20 -20 16 4 -18 -20 -20 -20 -20 -20 -20 -20
-7 14 23 28 25 25 27 33 29 26 32 33 27 -15 -4 -20 -20 -20 -19 5 27 -3 -6 3 12 -16 -14 -20 -20 -20 -20 -20 -20 -20 -20 -12 -20 -20 -20 -20 -20 -20 -20 -20
-11 -0 -3 -3 17 7 5 14 27 32 35 37 27 -14 -12 -20 1 29 32 28 10 16 -20 22 5 -4 -20 -20 -20 -19 17 -19 -3 -2 -20 -20 -20 -20 -20 -20 -20 -10 -17 2
-20 -11 9 -4 12 3 18 15 13 9 24 27 20 4 10 22 30 13 3 7 -15 6 -2 4 10 -20 -20 -20 5 -4 -17 -16 -20 -20 -20 -20 -20 -20 -20 -20 -20 -14 -3 -12
-20 -16 -20 -18 -14 2 7 17 20 0 -5 -8 5 4 8 -3 -7 2 -1 9 1 1 -20 -6 -20 -11 2 8 -6 -20 -20 -20 -20 -20 -20 -20 -20 -20 -20 -20 -20 -20 -20 -20
-20 -20 -14 -11 11 11 -19 -18 8 11 5 -4 18 17 10 -3 20 34 21 24 22 16 18 9 11 17 2 -20 -20 -20 -20 -20 -20 -20 -20 -20 -20 -20 -20 -20 -20 -20 -20 -20
-20 -18 -20 -6 -11 -18 2 8 -1 12 23 27 9 2 13 8 -12 -5 1 -19 -19 1 -20 -8 5 -17 -20 -20 -20 -20 -20 -20 -20 -20 -20 -20 -20 -20 -20 -20 -20 -20 -20 -20
1 -1 -18 -19 -20 -20 -20 -20 -11 23 20 1 -13 -13 -20 -13 -16 -11 -20 -9 -8 -7 -17 -20 -20 -20 -20 -20 -20 -20 -20 -20 -20 -20 -20 -20 -20 -20 -20 -20 -20 -20 -20 -20
-20 -11 -6 -20 -18 -20 -20 -20 -20 -13 -20 -20 -13 -17 -13 -14 -13 2 -1 -14 -20 -20 -20 -20 -20 -20 -20 -20 -20 -20 -20 -20 -20 -20 -20 -20 2 -18 -20 -20 -20 -20 -20 -20
-20 -20 -6 -1 -20 -20 -20 -20 -20 -20 -20 -20 -20 -20 -20 -20 -3 -20 -20 -20 -20 11 -20 -20 -20 -20 -20 -20 -20 -20 -20 -20 -20 -20 -20 8 13 4 -19 -20 -20 -20 -20 -20

GFSNW_prec_radar_003.txt.gz
Reflectivity
-20 -20 -20 -20 -20 -20 -20 -20 -20 -20 -20 -20 -20 -20 -20 -20 -20 -20 -20 -20 -20 -20 -20 -20 -20 -20 -20 -20 -20 -20 -20 -20 -20 -20 -20 -20 -20 -20 -20 -20 -19 -2 6 -14
-20 -20 -20 -20 -20 -20 -20 -20 -20 -20 -20 -15 -20 -20 -20 -20 -20 -20 -20 -20 -20 -20 -20 -20 -20 -20 -20 -20 -20 -20 -20 -12 -20 -20 -20 -20 -20 -20 -20 -20 -17 -20 -2 -16
-20 -20 -20 -20 -20 -20 -19 -20 18 -20 -20 -20 -20 -20 -20 -20 -20 -20 -20 -20 -20 -20 -20 -20 -20 -20 -20 -20 -20 -20 -20 -20 -20 -20 -20 -20 -20 -20 -20 -20 -12 -20 -13 -20
-20 -20 -20 -20 -20 -20 -20 -20 -20 -20 -20 -20 -20 -20 -20 -20 -20 -20 -20 -20 -20 -20 -20 -20 -20 -20 -20 -20 -20 -20 -20 -9 -20 -20 -20 -20 -20 -20 -20 -20 -20 -19 -20 -20
-20 -20 -20 -20 -20 -20 -20 -20 -20 -20 -20 -20 -20 -20 -20 -20 -20 -20 -20 -20 -20 -20 -20 -20 -1 -20 -20 -10 -20 -20 -20 -20 -17 -20 -20 -20 -20 -20 -20 -20 -20 -20 -20 -20
-20 -20 -20 -20 -20 -20 -20 -20 -20 -20 -20 -20 -20 -20 -20 -20 -20 -20 -20 -20 -20 -19 -20 -20 -20 -20 -20 -20 -20 -20 0 -20 -0 -20 -20 -20 -19 -20 -20 -20 -20 -20 -13 -20
-20 -9 -2 -20 -20 -20 -20 -20 -20 17 -8 -20 -20 -20 -20 -20 -20 -20 -20 -20 1 -20 -20 -20 -20 -20 -20 -20 -20 -20 -12 -19 -19 6 1 10 -20 -20 -20 -20 -20 -20 -20 -20
-20 -17 -20 -20 -20 -20 -20 -20 -20 -14 21 -20 -20 -20 -20 -20 -20 -20 -20 -20 -20 -20 -20 -1 -1 -20 9 -8 -20 -20 -20 -12 -14 3 8 -12 -20 -20 -20 -20 -20 -20 -20 -18
-20 -20 -20 -20 -20 -20 -20 -20 -20 -20 23 1 -19 -20 -20 -4 7 3 -17 -20 -20 -20 14 0 8 -2 -20 -20 -20 -20 -20 -20 -20 16 14 9 -20 -20 -20 -20 -20 -20 -20 4
-20 -20 -20 -20 -20 -20 -20 1 -20 -6 4 -20 -17 -20 11 -10 -10 3 19 -11 -15 -20 10 -2 9 7 -10 -2 -17 -20 1 -11 -20 -20 1 -8 -20 -20 -20 -20 -2 -5 18 17
-20 -20 -20 -20 -20 -20 -20 -2 -20 9 19 -20 -20 -20 -20 -20 -20 6 16 11 -17 -7 10 2 -20 3 -15 10 -12 -3 12 27 31 9 11 13 -6 -18 26 28 -6 -20 17 10
-20 -20 -20 -20 -20 -20 -20 8 -9 -20 -15 -20 -20 -20 -20 -20 -20 6 7 -19 -1 11 13 9 10 -14 9 -18 1 4 5 10 -17 6 5 -20 -20 -5 1 -20 21 -2 28 8
-18 -20 -20 -20 -7 19 13 1 5 -7 13 -17 -4 -20 -15 -20 -16 -20 20 15 -20 -15 -14 25 11 7 8 5 -2 3 -11 -16 18 -13 2 -20 -20 -17 3 27 24 11 9 15
-20 -20 -20 -20 -20 -20 -15 3 17 3 10 14 -3 -14 -20 -20 -20 -20 -20 -7 19 15 19 18 12 23 -3 -1 -1 9 14 14 8 3 -10 -20 -5 18 18 11 17 -11 -20 1
-5 17 -11 -20 -20 -7 -9 -16 -4 12 15 18 -0 -3 -20 -13 -20 -20 -20 -20 -20 20 20 16 10 -19 2 -15 -4 8 3 -11 8 32 15 23 9 -16 -8 10 9 17 13 -18
-3 9 15 22 17 20 26 35 20 18 7 28 29 -16 -20 -20 -20 -12 -20 -20 4 24 4 12 -13 -18 13 11 -0 -16 -15 4 18 25 -5 12 -17 6 8 20 -19 -19 -20 -20
-4 12 25 24 20 29 32 32 16 11 10 35 32 7 -3 -20 -19 11 13 4 25 18 8 7 9 -4 24 8 2 -20 -19 -13 -20 -20 -2 5 -12 19 -20 -20 -20 -20 -20 -20
-7 9 16 17 21 28 28 26 25 17 29 26 37 20 -9 -17 -4 9 -11 -20 -16 15 10 2 -8 -5 11 10 -19 -20 -20 -20 -20 -19 -11 28 -5 -20 -20 -20 -20 -20 -20 -20
-5 12 15 20 24 25 20 28 27 25 26 33 33 18 11 -15 3 -11 -0 -2 21 -11 17 -2 17 -20 13 -20 -20 -20 -20 -14 13 -2 -16 -2 -14 -20 -20 -20 -20 -20 -20 -2
-17 -10 -9 19 4 17 9 24 35 40 36 31 28 4 18 -11 28 30 23 26 28 26 -14 -19 -19 -20 -20 -20 -20 -20 -20 -20 -15 8 -20 -20 -20 -20 -20 -20 -20 -17 -20 -2
-1 -0 13 5 -20 10 7 16 25 21 20 13 1 8 1 4 16 27 20 26 11 18 -20 17 6 1 -4 -11 -20 -20 -16 -7 -20 -20 -20 -20 -20 -20 -20 -20 -20 -18 -20 -20
-11 -11 -2 1 13 13 -2 5 8 5 7 7 14 8 4 9 -9 1 18 10 2 -18 -9 -17 -17 -5 -20 -19 -20 -20 -20 -20 -20 -20 -20 -20 -20 -20 -20 -20 -20 -20 -20 -20
-20 -20 10 -1 10 8 -18 -2 10 14 11 1 9 2 -20 -14 -1 22 9 13 22 22 17 17 -16 -5 -17 -20 -20 -20 -20 -20 -20 -20 -20 -20 -20 -20 -20 -20 -20 -18 -20 -20
-19 -19 -20 -18 6 -3 -0 -6 4 16 21 7 2 -17 -20 9 -4 -3 11 13 -11 1 -2 -7 -11 -20 -20 -20 -20 -20 -20 -20 -20 -20 -20 -20 -20 -20 -20 -20 -11 -20 -20 -20
-5 -20 -20 -2 -5 -8 -7 2 -5 7 -6 -12 4 -8 -15 -12 -15 -4 -7 -7 -11 -12 -20 -14 -20 -20 -20 -20 -20 -20 -20 -20 -20 -20 -20 -20 -20 -20 -20 -2 -7 -20 -10 -20
-18 -7 -12 5 0 -9 -15 -20 -20 3 -12 -20 -16 -4 -2 -6 3 3 -12 -20 -20 -20 3 1 -20 -20 -20 -20 -20 -20 -20 -20 -20 -20 -20 -20 -20 -20 4 15 -19 -8 -20 -20
-8 -0 -18 10 -18 -15 -14 4 -1 -1 -4 -19 -13 -20 -20 -20 -6 -19 -20 -20 -20 -19 -20 -20 -20 -20 -20 -20 -20 -20 -20 -20 -20 -19 2 -18 -11 14 15 -15 -18 -20 -20 -20

GFSNW_prec_radar_006.txt.gz
Reflectivity
-20 -20 -20 -20 -20 -20 -20 -20 -20 -20 -20 -20 -20 -20 -20 -20 -20 -20 -20 -20 -20 -20 -20 -20 -20 -20 -20 -20 -20 -20 -20 -20 -20 -20 -20 -20 -20 -20 -20 4 9 -2 -13 -20
-20 -20 -20 -20 -20 -20 -20 -20 -20 -20 -20 -16 -20 -20 -20 -20 -20 -20 -20 -20 -20 -20 -20 -20 -20 -20 -20 -20 -20 -20 -20 -20 -20 -20 -19 -20 -20 -20 -20 -20 -20 4 12 -20
-20 -20 -20 -20 -20 -20 -17 -20 5 -20 -20 -20 -20 -20 -20 -20 -20 -20 -20 -20 -20 -20 -20 -20 -20 -20 -20 -20 -20 -20 -20 -20 -20 -20 -20 -20 -20 -20 -20 -20 -20 -20 -13 -20
-20 -20 -20 -20 -20 -20 -19 -20 -20 -20 -11 -20 -20 -20 -20 -20 -20 -20 -20 -20 -20 -20 -20 -20 -20 -20 -20 -20 -20 -20 -20 -20 -20 -20 -20 -20 -20 -20 -20 -20 -20 -19 -20 -20
-20 -20 -20 -20 -20 -20 -20 -20 -20 -20 -20 -20 -20 -20 -20 -20 -20 -20 -20 -20 -20 -20 -20 -20 -15 -20 -20 -20 -20 -20 -20 -20 -20 -20 -20 -20 -20 -20 -20 -20 -20 -20 -20 -20
-20 -20 -20 -20 -20 -20 -20 -20 -20 -14 -20 -20 -20 -20 -20 -20 -20 -20 -20 -20 -20 -20 -20 -20 -20 -20 -20 -20 -20 -20 -3 -4 -16 -1 -6 -20 -20 -20 -20 -20 -9 -20 -20 -20
-20 2 1 -20 -20 -20 -20 -20 -20 11 -19 -20 -20 -20 -20 -20 -20 -20 -20 -20 -20 -20 -20 -20 -20 -20 -20 -20 -20 -20 -15 -17 -10 4 -18 -3 -20 -20 -20 -20 -20 -20 -20 -20
-20 -6 -20 -20 -20 -20 -20 -20 -20 -14 9 -20 -20 -20 -20 -20 -20 -20 -20 -20 -20 -20 -20 -12 -20 -20 -20 -20 -20 -20 -20 -20 -8 -20 8 -12 -16 -20 -20 -20 -20 -20 -20 -19
-20 -20 -20 -20 -20 -20 -20 -20 -20 -20 20 -5 -20 -20 -20 -14 5 12 -17 -20 -20 -20 -19 1 -14 -20 -20 -20 -20 -20 -20 -20 9 10 11 9 -20 -20 -20 -20 -19 1 8 7
-20 -20 -20 -20 -20 -20 -12 9 -20 -20 -11 -20 -20 -20 -20 -20 -9 4 15 8 -18 -20 14 11 -20 -20 -20 -15 -17 -20 -0 -20 -20 -20 3 -9 -20 -20 5 14 32 17 13 29
-20 -20 -20 -20 -20 -20 -5 -15 10 -10 16 -20 -20 -20 -20 -20 -2 -16 -7 11 -20 -5 10 11 -15 -20 -7 -4 -20 5 9 12 12 0 -2 9 2 -17 20 18 27 10 -20 -18
-20 -20 -20 -20 -20 -20 -10 -5 19 21 -13 -17 -20 -20 -20 -20 -20 20 22 -2 17 13 -9 2 -2 -15 9 -20 -12 -20 -20 -20 -19 -17 -0 -20 -20 -20 -6 14 18 -18 19 3
-20 -20 -20 -20 -20 -20 -18 -17 16 -13 14 -18 -11 -20 -20 -20 -20 -20 23 -15 -19 -20 -13 23 7 17 1 -8 -5 -14 11 -20 -13 3 -20 -20 -20 -20 -11 3 12 12 28 -2
-20 -20 -20 -20 -20 -20 -20 3 4 15 9 16 -3 -20 -20 -20 -20 -14 -6 -2 10 19 19 22 14 -11 -15 -13 -14 5 -16 -7 -5 -8 -20 -20 -18 2 7 8 12 32 -4 -20
-7 -17 -18 -16 -20 6 21 26 9 5 17 10 -14 -18 -20 -20 -20 -20 17 -6 -20 -13 18 16 -6 -19 -3 -20 -13 7 12 -19 5 -20 -20 19 -20 -20 9 10 39 0 13 3
-19 -20 7 -1 25 30 28 26 -2 -8 13 30 23 5 0 -20 -20 -20 -19 -20 -1 22 24 17 -11 -1 -17 6 1 -20 -20 -20 11 14 -19 -20 13 15 3 -1 -19 23 14 -16
3 -20 -20 -20 12 32 32 24 13 7 15 32 36 27 -11 -20 -20 -20 -20 -4 1 13 15 9 -11 -7 24 24 13 -20 -20 -20 -20 -20 15 26 -13 7 -14 -6 -0 11 9 -19
-13 -18 -6 19 27 31 30 29 33 29 22 22 30 12 5 -14 -18 -6 -16 -4 -16 17 25 14 18 17 15 15 -6 -20 -20 -20 -20 15 -1 -5 1 -17 -11 -13 16 13 -13 -20
-20 9 11 8 11 26 12 28 27 29 24 33 24 18 15 -11 -4 -3 -1 18 27 24 20 -4 -8 -16 2 -13 -20 -20 -20 -20 -20 -20 -18 10 -17 -19 -20 -19 -20 -20 -20 -20
-19 -5 0 9 20 33 22 11 27 26 31 23 21 16 9 -2 3 3 1 5 12 14 -20 -19 -8 -18 -20 -20 -20 -20 -20 -20 -15 -20 -20 -11 -20 -20 -20 -20 -20 -20 -20 -20
-20 -10 6 4 2 -11 21 34 29 27 17 16 -4 -4 -11 1 18 25 21 31 26 10 -20 18 3 -19 -20 -20 -20 -7 -20 -20 -20 -20 -20 -20 -20 -20 -20 -20 -20 -20 -20 -20
-1 -7 -6 -20 5 3 4 12 12 14 -7 9 0 7 -9 19 10 15 9 -6 3 -20 -12 -20 -20 -20 -20 -20 -20 -20 -20 -20 -20 -20 -20 -20 -20 -20 -20 -20 -20 -20 -20 -20
-2 -20 1 -7 10 6 1 1 11 -16 -2 22 6 11 -20 -20 -15 0 8 10 4 -19 13 -2 -14 -19 -13 -20 -20 -20 -20 -20 -20 -20 -20 -20 -20 -20 -20 -20 -20 -20 -20 -19
-17 4 -20 -20 -18 -5 3 3 -20 5 -3 -17 3 -1 11 -4 -11 -18 -5 -18 15 14 -3 -20 -10 -20 -17 -20 -20 -20 -20 -20 -20 -20 -20 -20 -20 -20 -20 -20 -20 -20 -16 6
-15 -10 -20 -12 -10 -5 -18 -19 0 4 -20 -9 -11 -16 -20 -4 -17 -20 -11 -10 -12 -20 -20 -12 -12 -2 -20 -20 -20 -20 -20 -20 -20 -20 -20 -20 -20 -20 -20 -20 -20 -6 9 -10
-20 -14 -14 -14 -5 -3 -10 -20 -5 4 -7 -16 -17 -14 -14 -5 -12 -1 -15 -20 -20 -20 12 -5 -20 -20 -20 -20 -20 -20 -20 -20 -20 -20 -20 -20 -20 -3 -20 -20 -16 6 -3 -8
-20 -7 -16 14 -12 1 -20 -20 -5 8 -20 -20 -6 -20 -20 -20 -19 -20 -20 -20 -20 9 -20 -20 -20 -20 -20 -20 -20 -20 -20 -20 -20 -20 -20 -20 -20 -20 -13 -20 8 -13 -20 -20

GFSNW_prec_radar_009.txt.gz
Reflectivity
-20 -20 -20 -20 -20 -20 -20 -20 -20 -20 -20 -20 -20 -20 -20 -20 -20 -20 -20 -20 -20 -20 -20 -20 -20 -20 -20 -20 -20 -20 -20 -20 -20 -20 -20 -20 -20 -20 -20 -20 -18 -20 -19 -20
-20 -20 -20 -20 -20 -20 -20 -20 -20 -20 -20 -20 -20 -20 -20 -20 -20 -20 -20 -20 -20 -20 -20 -20 -20 -20 -20 -20 -20 -20 -20 -20 -20 -20 -20 -20 -20 -20 -20 -20 -20 -20 -7 -20
-20 -20 -20 -20 -20 -20 -18 -20 -20 -20 -20 -20 -20 -20 -20 -20 -20 -20 -20 -20 -20 -20 -20 -20 -20 -20 -20 -20 -20 -20 -20 -20 -20 -20 -20 -9 -19 -20 -20 -20 -20 -18 -15 -20
-20 -20 -20 -20 -20 -20 -20 -20 -20 -20 -20 -20 -20 -20 -20 -20 -20 -20 -20 -20 -20 -20 -20 -20 -20 -20 -20 -20 -20 -20 -20 -20 -20 -20 -20 -1 -20 -20 -20 -20 -20 -19 -20 -20
-20 -20 -20 -20 -20 -20 -20 -20 -20 -20 -20 -20 -20 -20 -20 -20 -20 -20 -20 -20 -20 -20 -20 -20 -20 -20 -20 -20 -20 -20 -20 -12 -20 -20 -20 -20 -19 -20 -20 -20 -20 -20 -20 -20
-20 -20 11 -20 -20 -20 -20 -20 -20 -20 -20 -20 -20 -20 -20 -20 -20 -20 -20 -20 -20 -20 -20 -20 -20 -20 -20 -20 -20 -20 -20 -20 -20 -2 -20 -20 -20 -20 -20 -20 -20 -20 -20 -20
-20 9 6 -20 -20 -20 -20 -20 -20 -20 -20 -20 -20 -20 -20 -20 -20 -20 -20 -20 -20 -20 -20 -20 -20 -20 -20 -20 -20 -20 -20 -20 -20 1 -18 -6 -20 -20 -20 -20 -20 -20 -20 -20
-20 6 -4 -20 -20 -20 -20 -20 -20 -20 -20 -20 -20 -20 -20 -20 -20 -20 -20 -20 -20 -20 -20 -20 -20 -20 -20 -20 -20 -20 -20 -20 -20 6 -18 -14 -20 -20 -20 -20 -20 -20 -20 -20
-20 -20 -20 -20 -20 -20 -20 -20 -20 -20 -20 -20 -20 -20 -20 -20 -20 -20 -20 -20 -20 -20 -20 -20 -20 -20 -20 -20 -20 -20 -20 -20 -20 -20 -20 -2 -20 -20 -20 -20 -11 -18 16 -20
-20 -20 -20 -20 -20 -20 -20 -20 -20 -20 -20 -20 -20 -20 -20 -20 -20 -20 -20 -20 -20 -20 5 -20 -20 -20 -20 -20 -20 -20 -20 -17 -20 -20 -20 -17 -20 -20 -20 -11 1 7 -14 18
-20 -20 -20 -20 -20 -20 -20 -20 -20 -20 2 -20 -20 -20 -20 -20 -20 -20 -20 -16 -20 -20 -20 -20 -20 -20 -20 -20 -20 -20 -20 -20 -12 -20 -4 -17 -20 -20 -20 -7 -20 -13 -20 -4
-20 -20 -20 -20 -20 -20 -3 -20 -20 -20 -20 -20 -20 -20 -20 -20 -20 11 -20 -20 -20 -20 -19 -20 -20 -20 -11 -20 -10 -20 -20 -20 -20 -20 -20 -20 -20 -20 -20 -20 3 -20 19 -19
-18 -20 -20 -20 -20 -20 -20 -20 -20 -20 7 -20 -20 -20 -16 -13 -1 4 16 -20 -18 -14 -20 -15 5 29 19 7 12 -19 -1 9 -17 -15 -20 -20 -20 -20 -20 -20 7 1 2 33
-20 -20 -20 -20 -20 -20 -19 -20 -20 -20 -13 9 3 -20 -15 -2 -12 -20 -20 -20 -20 0 24 25 26 20 4 16 -7 -17 14 20 -19 -20 -20 -20 -20 -18 12 -15 4 16 9 -18
-20 -20 -20 -20 -20 -20 -20 -20 -20 -20 16 -6 11 -3 -10 4 10 -6 -19 -17 -1 19 19 19 7 -20 -14 -20 -20 -7 -15 -20 2 -18 -20 12 -1 -17 -11 18 10 -4 -12 -17
-20 -20 -20 -8 -20 -20 -17 -1 -14 -20 -7 22 30 -1 -20 -20 -17 -15 -20 -19 -7 11 9 9 -14 -20 1 -20 1 -6 -20 -20 -14 -6 14 5 -19 -17 29 24 -19 -10 7 -20
-17 14 18 21 22 26 30 22 7 -8 24 26 17 3 -2 -20 -20 -20 -20 -20 -11 5 -16 1 -20 8 17 30 26 -20 -20 -20 -20 -20 -2 15 14 2 -10 -7 12 -2 -20 -20
6 9 11 23 25 32 28 21 13 16 20 26 31 20 2 -17 -20 -20 -20 -20 -17 -20 -20 -20 -13 3 11 28 11 -20 -20 -20 -20 -9 15 22 11 7 -13 -13 1 14 -12 -20
-15 6 8 9 9 16 23 26 21 21 18 35 25 -2 -16 1 -20 -14 4 -1 3 -5 -11 -20 -1 -10 16 -7 -20 -20 -20 -20 -20 -18 -20 -20 -10 -15 9 -6 -17 -20 -20 -20
14 8 -5 4 11 21 19 28 21 21 38 34 3 10 10 -20 -13 17 12 25 19 -5 -20 -20 -2 0 -20 -20 -20 -20 -20 -20 -20 -19 7 22 6 -20 -20 -20 -20 -20 -20 -20
-5 -2 8 8 13 12 10 4 18 20 15 1 -6 -3 -12 -3 14 28 29 24 17 -1 -20 -14 -20 -20 -20 -20 -20 -20 -6 -14 18 1 1 10 -13 -20 -20 -20 -20 -20 -20 -20
-20 -20 3 -3 3 -12 -17 -4 -2 2 -19 -9 -20 -20 -5 16 25 23 25 -11 8 -20 -20 -20 -20 -20 -20 -20 -20 7 -18 -20 -17 5 -14 -20 -20 -20 -20 -20 -20 -20 -20 -20
-17 -19 -20 -20 7 -16 -20 -20 -13 -20 -18 17 6 2 -19 -4 -8 13 -18 -2 -17 -20 -20 -20 -20 -20 -20 -20 -14 -20 -20 -20 -20 -20 -20 -20 -20 -20 -20 -20 -20 -20 -20 -20
-20 -20 -20 -20 -20 -20 -15 -20 -20 -11 -5 -20 -6 6 -20 -20 -20 -20 -20 -20 -20 9 -20 -20 -20 -20 -20 -20 -13 14 9 1 -20 -20 -20 -20 -20 -20 -20 -20 -20 -20 -20 -20
-20 -20 -20 -20 -16 -20 -20 -20 -20 -10 -8 -16 -20 -20 -20 -20 -20 -20 -20 -20 -18 -20 -20 -20 -20 -20 -20 -20 -20 -20 -20 -20 -20 -20 -20 -20 -20 -20 -20 -20 -20 -20 -20 -20
-20 -20 -20 -20 -20 -20 -20 -20 -20 -20 -20 -20 -20 -20 -20 -20 -20 -20 -20 -20 -20 -20 -20 -20 -20 -20 -20 -20 -20 -20 -20 -20 -20 -20 -20 -20 -20 -20 -20 -20 -20 -15 -20 -18
-20 -20 -20 -20 -20 -20 -20 -20 -20 -20 -20 -20 -20 -20 -20 -20 -20 -20 -20 -20 -20 -20 -20 -20 -20 -20 -20 -20 -20 -20 -20 -20 -20 -20 -20 -20 -20 -20 -20 -20 -20 -3 -19 -20

GFSNW_prec_radar_012.txt.gz
Reflectivity
-20 -20 -20 -20 -20 -20 -20 -20 -20 -20 -20 -20 -20 -20 -20 -20 -20 -20 -20 -20 -20 -20 -20 -20 -20 -20 -20 -20 -20 -20 -20 -20 -20 -20 -20 -20 -20 -20 -20 -20 -19 -20 -10 -15
-20 -20 -20 -20 -20 -20 -20 -20 -20 -20 -20 -20 -20 -20 -20 -20 -20 -20 -20 -20 -20 -20 -20 -20 -20 -20 -20 -20 -20 -20 -20 -20 -20 -20 -20 -20 -20 -20 -20 -20 -20 -20 -11 -20
-20 -20 -20 -20 -20 -20 -20 -20 -20 -20 -20 -20 -20 -20 -20 -20 -20 -20 -20 -20 -20 -20 -20 -20 -20 -20 -20 -20 -20 -20 -20 -20 -20 -20 -20 -20 -20 -20 -20 -20 -20 -20 -20 -20
-20 -20 -20 -20 -20 -20 -20 -20 -20 -20 -20 -20 -20 -20 -20 -20 -20 -20 -20 -20 -20 -20 -20 -20 -20 -20 -20 -20 -20 -20 -20 -20 -20 -20 -20 -20 -20 -20 -20 -20 -20 -20 -20 -20
-20 -15 12 -2 -20 -20 -20 -20 -20 -20 -20 -20 -20 -20 -20 -20 -20 -20 -20 -20 -20 -20 -20 -20 -20 -20 -20 -20 -20 -20 -20 -20 -20 -20 -20 -20 -20 -20 -20 -20 -20 -20 -20 -20
-20 10 11 -20 -20 -20 -20 -20 -20 -20 -20 -20 -20 -20 -20 -20 -20 -20 -20 -20 -20 -20 -20 -20 -20 -20 -20 -20 -20 -20 -20 -20 -20 -20 -17 -20 -20 -20 -20 -20 -20 -20 -20 -20
-15 11 -1 -20 -20 -20 -20 -20 -20 -20 -20 -20 -20 -20 -20 -20 -20 -20 -20 -20 -20 -20 -20 -20 -20 -20 -20 -20 -20 -20 -20 -20 -20 -20 -20 8 -20 -20 -20 -20 -20 -20 -20 -20
-20 11 -19 -20 -20 -20 -20 -20 -20 -20 -20 -20 -20 -20 -20 -20 -20 -20 -20 -20 -20 -20 -20 -20 -20 -20 -20 -20 -20 -20 -20 -20 -20 -20 -18 -13 -20 -20 -20 -20 -20 -20 -20 -20
-20 -20 -20 -20 -20 -20 -20 -20 -20 -20 -20 -20 -20 -20 -20 -20 -20 -20 -20 -20 -20 -20 -20 -20 -20 -20 -20 -20 -20 -20 -20 -20 -20 -20 -14 1 -20 -20 -20 -20 -20 -20 -20 -20
-20 -20 -20 -20 -20 -20 -20 -20 -20 -20 -20 -20 -20 -20 -20 -20 -20 -20 -20 -20 -20 -20 -20 -20 -20 -20 -20 -20 -20 -20 -20 -20 -20 -17 -20 -20 -20 -20 -20 -19 -20 -20 -15 -20
-20 -20 -20 -20 -20 -20 -20 -20 -20 -20 -7 -20 -20 -20 -20 -20 -20 -20 -20 -16 -20 -11 -20 -20 -20 -20 -20 -20 -20 -20 -20 -20 -20 -20 -16 -20 -20 8 10 -16 -20 -20 -20 -20
-20 -20 -20 -20 -20 -20 -20 -20 -20 -20 -20 -20 -20 -20 -20 -20 -20 -20 -20 -20 -20 -20 -20 -20 -20 -20 -20 -20 -20 -20 -20 -20 -20 -20 -20 -20 -5 8 -20 -20 -20 -20 -20 -20
-20 -20 -20 -20 -20 -20 -20 -20 -20 -20 8 -20 -20 -20 -20 -20 -20 -20 -15 -20 -1 8 -20 -20 -18 -18 -17 -15 5 18 25 -19 -20 -16 -20 -20 -20 -20 -20 -20 -20 -20 3 -5
-10 -20 -20 -20 -20 -20 -20 -20 -20 -20 -10 9 -20 -20 -20 -6 -20 -20 -20 -20 -12 3 -12 10 22 28 23 21 5 -9 -1 8 -0 -20 -20 -19 -20 -14 -15 21 -14 -20 -17 2
9 -10 -20 -20 -20 -20 -13 -20 -20 -20 -12 -13 -20 -20 -20 -11 6 8 -3 -20 9 17 7 12 9 -8 9 -1 -19 3 -1 -16 -13 -20 -16 13 -1 -4 16 -4 -14 19 20 7
9 3 -20 -20 -20 -20 -20 -20 -20 -20 -20 19 -7 -20 -20 -20 -20 -20 -20 -20 -20 -1 -10 -8 -20 -20 -13 11 23 -11 -14 -20 -20 21 28 10 11 -9 -20 -7 19 16 12 9
-6 -5 -18 -14 -14 -7 -20 1 -15 -19 8 18 24 1 -20 -20 -20 -20 -20 -16 -20 -20 -17 -8 0 -0 20 25 7 -20 -20 -20 -9 24 13 7 -12 -17 17 26 17 -4 -18 -20
-3 13 21 21 29 28 22 23 18 20 18 22 31 22 -7 1 -7 -20 -20 -20 -6 -20 -20 -20 -18 -2 14 10 -20 -20 -20 -0 8 26 -8 -20 5 7 17 12 -2 0 -16 -20
12 16 27 25 19 19 18 22 8 24 19 32 21 19 2 6 -4 -3 -7 -20 -20 -20 -20 -20 -20 -20 -15 -20 -20 -20 -20 -20 -16 -15 -15 -9 13 -5 19 16 6 -17 -20 -20
16 2 -15 4 6 21 22 35 36 34 35 25 9 2 -5 -11 6 -1 7 24 26 3 -20 -20 -18 -20 -20 -20 -20 -20 -20 -20 -20 -20 -20 18 29 18 -10 -20 -20 -20 -20 -20
-10 -11 -4 8 20 5 11 23 9 9 2 6 -11 -19 -20 -2 -9 15 18 16 13 -17 -20 -18 -20 -20 -20 -20 -20 -20 -20 -20 -20 -3 -3 -4 -20 -20 -20 -20 -20 -20 -20 -20
4 0 15 -8 -8 -6 -7 -3 -9 -18 -20 -15 -20 -18 -5 14 14 22 23 -14 0 -19 -20 -19 -20 -20 -20 -20 -20 -20 6 12 -20 -20 -17 -7 14 10 -16 -20 -20 -20 -20 -20
-19 -16 -15 -17 -9 -20 -20 -20 -20 -20 -20 3 -12 -16 -2 1 -13 16 -16 -20 -20 -20 -20 -20 -20 -20 -20 12 14 -12 -5 -9 -12 8 18 13 -2 -19 -20 -20 -20 -20 -20 -20
-20 -20 -20 -20 -20 -20 -20 -20 -20 -18 -18 7 19 9 -20 -20 -20 -20 -20 -20 -20 -1 -17 -20 -20 -20 -20 -3 -2 -20 -20 -20 -20 -20 -20 -20 -20 -20 -20 -20 -20 -20 -20 -20
-20 -20 -20 -20 -20 -20 -20 7 -14 1 -5 -20 -20 -20 -20 -20 -20 -20 -20 -20 -20 -20 -20 -20 -20 -20 -20 -20 -20 -20 -20 -20 -20 -20 -20 -20 -20 -20 -20 -20 -20 -20 -20 -20
-20 -20 -20 -20 -20 -20 -8 -20 -20 -20 -20 -20 -20 -20 -20 -20 -20 -20 -20 -20 -20 -20 -20 -20 -20 -20 -20 -20 -20 -20 -20 -20 -20 -20 -20 -20 -20 -20 -20 -20 -20 -20 -20 -19
-20 -20 -20 -20 -20 -20 -20 -20 -20 -20 -20 -20 -20 -20 -20 -20 -20 -20 -20 -20 -20 -20 -20 -20 -20 -20 -20 -20 -20 -20 -20 -20 -20 -20 -20 -20 -20 -20 -20 -20 -8 -20 -20 -10

GFSNW_prec_radar_015.txt.gz
Reflectivity
-20 -20 -20 -20 -20 -20 -20 -20 -20 -20 -20 -20 -20 -20 -20 -20 -20 -20 -20 -20 -20 -20 -20 -20 -20 -20 -20 -20 -20 -20 -20 -20 -20 -20 -20 -20 -20 -20 -20 -20 -20 -20 -20 -15
-20 -20 -20 -20 -20 -20 -20 -20 -20 -20 -20 -20 -20 -20 -20 -20 -20 -20 -20 -20 -20 -20 -20 -20 -20 -20 -20 -20 -20 -20 -20 -20 -20 -20 -20 -20 -20 -20 -20 -20 -20 -20 -18 -20
-20 -20 -12 -0 -20 -20 -20 -20 -20 -20 -20 -20 -20 -20 -20 -20 -20 -20 -20 -20 -20 -20 -20 -20 -20 -20 -20 -20 -20 -20 -20 -20 -20 -20 -20 -20 -20 -20 -20 -20 -20 -20 -20 -20
-20 6 9 3 -20 -20 -20 -20 -20 -20 -20 -20 -20 -20 -20 -20 -20 -20 -20 -20 -20 -20 -20 -20 -20 -20 -20 -20 -20 -20 -20 -20 -20 -20 -20 -20 -20 -20 -20 -20 -20 -19 -20 -20
-15 12 9 -20 -20 -20 -20 -20 -20 -20 -20 -20 -20 -20 -20 -20 -20 -20 -20 -20 -20 -20 -20 -20 -20 -20 -20 -20 -20 -20 -20 -20 -20 -20 -20 -20 -20 -20 -20 -20 -20 -20 -20 -20
10 11 -12 -20 -20 -20 -20 -20 -20 -20 -20 -20 -20 -20 -20 -20 -20 -20 -20 -20 -20 -20 -20 -20 -20 -20 -20 -20 -20 -20 -20 -20 -20 -20 -20 -20 -20 -20 -20 -20 -20 -20 -20 -20
11 12 -7 -20 -20 -20 -20 -20 -20 -20 -20 -20 -20 -20 -20 -20 -20 -20 -20 -20 -20 -20 -20 -20 -20 -20 -20 -20 -20 -20 -20 -20 -20 -20 -20 -16 -20 -20 -20 -20 -20 -20 -20 -20
8 13 -20 -20 -20 -20 -20 -20 -20 -20 -20 -20 -20 -20 -20 -20 -20 -20 -20 -20 -20 -20 -20 -20 -20 -20 -20 -20 -20 -20 -20 -20 -20 -20 -14 -20 -20 -20 -20 -20 -20 -20 -20 -20
-0 -20 -20 -20 -20 -20 -20 -20 -20 -20 -20 -20 -20 -20 -20 -20 -20 -20 -20 -20 -20 -20 -20 -20 -20 -20 -20 -20 -20 -20 -20 -20 -20 -20 -20 -13 -20 -20 -20 -20 -20 -20 -20 -20
-20 -20 -20 -20 -20 -20 -20 -20 -20 -20 -20 -20 -20 -20 -20 -20 -20 -20 -20 -20 -20 -20 -14 -20 -20 -20 -20 -20 -20 -20 -20 -20 -20 -20 -20 -20 -20 -20 -20 -20 -20 -8 -20 -20
-20 -20 -20 -20 -20 -14 -20 -20 -20 -20 -20 -20 -20 -20 -20 -20 -20 -20 -20 -20 -20 -20 -20 -20 -20 -20 -20 -20 -20 -20 -20 -20 -20 -4 -20 -20 -20 -20 -20 -19 -9 7 -20 -20
-20 -20 -20 -20 -20 -20 -20 -20 -20 -20 -20 -20 -20 -20 -20 -20 -20 -20 -20 -20 -20 -20 -20 -20 -20 -20 -20 -20 -5 -20 -20 -20 -20 -20 -20 -12 6 11 -20 -14 -20 -20 -20 -3
-20 -20 -20 -20 -20 -20 -20 -20 -20 -20 6 -20 -20 -20 -20 -20 -20 -20 -20 -20 -20 -20 -20 -7 -16 -20 -17 -12 -19 -12 21 -17 -20 -1 13 -18 -20 -20 6 4 -20 2 9 8
-20 -20 -20 -20 -20 -20 -20 -20 -20 -20 -12 7 -20 -20 -20 -20 -20 -20 -20 -20 -20 -20 -20 2 -18 8 8 5 -20 11 -3 1 9 20 -19 -20 -20 -20 24 -2 26 35 -19 15
8 13 1 -20 -20 -20 -9 -20 -20 -20 -11 -19 -20 -20 -20 -20 -20 -20 -20 -20 -20 -20 2 0 -14 12 0 -5 -2 10 -10 -20 -1 8 11 9 -16 32 25 32 4 -19 -16 10
-15 7 13 12 -20 -20 -19 0 -20 -20 -20 4 13 -17 -20 -20 -20 -20 -20 -20 -20 -20 -20 -5 -20 -20 -19 -2 -3 -8 -20 -14 -13 -20 10 -6 22 20 34 28 -9 17 19 -14
-11 -20 -20 -20 6 -18 -20 -20 -16 -20 -20 7 10 -19 -20 -20 -20 -20 -20 -20 -20 -20 -20 -7 -20 -20 4 -9 8 -15 -19 0 2 23 -11 -6 12 35 34 6 -17 -20 2 2
15 11 12 17 24 20 12 -5 10 -1 -3 -7 -4 17 1 -19 -10 -19 -18 -17 -18 -20 -20 -20 -20 -20 -20 4 -20 -20 -20 -20 -20 -20 -20 -20 -20 -20 -16 -1 -14 -18 -10 -2
30 22 30 26 23 23 21 27 19 34 14 22 23 16 -0 20 13 -7 -16 -20 -19 -18 -20 -20 -20 -20 -15 -7 -20 -20 -20 -20 -20 -20 -20 -20 -20 -20 -20 -19 12 7 -18 -19
30 30 33 34 29 29 26 33 24 25 33 36 30 22 27 24 18 28 5 -20 -19 -16 -5 -20 -6 11 11 -20 -20 -20 -20 -20 -20 -20 -4 8 -4 -20 -12 3 -7 -20 -20 -20
-9 7 19 27 23 26 20 25 21 22 17 20 10 2 -0 4 10 29 2 22 6 -19 -20 -20 -20 -20 -20 -20 -20 -20 -20 -20 -20 -20 3 20 -1 -20 -20 -20 -20 -20 -20 -20
-19 -20 -10 -20 -16 -16 -12 -7 -1 -16 -20 -20 -20 -11 8 13 2 18 17 -18 1 -20 -20 -20 -12 -20 -20 -20 -20 -20 -19 10 19 -6 -20 -20 -20 -6 2 -18 -20 -20 -20 -20
-20 -20 -7 -12 -20 -20 -20 -20 -20 -20 -20 -8 -20 -18 -7 -2 -8 8 -10 -18 -20 -19 -18 -20 -20 -20 -20 -20 -19 -5 -19 -20 -20 -20 -20 -20 -20 -20 -20 -20 -20 -20 -20 -20
-20 -20 -20 -20 -20 -20 -20 -20 -20 -20 -20 2 16 -20 -20 -20 -20 -20 -20 -20 -20 -20 -20 -20 -20 -20 -20 -20 -20 -20 -20 -20 -20 -20 -20 -20 -20 -20 -20 -20 -20 -20 -20 -20
-20 -20 -20 -20 -20 -20 -20 -16 -20 -16 -6 -20 -20 -17 -18 -19 -20 -20 -20 -20 -20 -20 -20 -20 -20 -20 -20 -20 -20 -20 -20 -20 -20 -20 -20 -20 -20 -20 -20 -20 -20 -20 -20 -20
-20 -20 -20 -20 -20 -20 -20 -18 -13 -9 -20 -20 -20 -20 -20 -20 -20 -20 -20 -20 -20 -20 -20 -20 -20 -20 -20 -20 -20 -20 -20 -20 -20 -20 -20 -20 -20 -20 -20 -20 -20 -20 -20 -9
-20 -20 -20 -20 -20 -20 -20 -20 -20 -20 -20 -20 -20 -20 -20 -20 -20 -20 -20 -20 -20 -20 -20 -20 -20 -20 -20 -20 -20 -20 -20 -20 -20 -20 -20 -20 -20 -20 -20 -20 -20 -20 -20 -20

GFSNW_prec_radar_021.txt.gz
Reflectivity
-20 -20 6 10 -3 -20 -20 -20 -20 -20 -20 -20 -20 -20 -20 -20 -20 -20 -20 -20 -20 -20 -20 -20 -20 -20 -20 -20 -20 -20 -20 -20 -20 -20 -20 -20 -20 -20 -20 -20 -20 -20 -20 -20
-20 3 8 -3 -20 -20 -20 -20 -20 -20 -20 -20 -20 -20 -20 -20 -20 -20 -20 -20 -20 -20 -20 -20 -20 -20 -20 -20 -20 -20 -20 -20 -20 -20 -20 -20 -20 -20 -20 -20 -20 -20 -20 -20
-9 10 7 -17 -20 -20 -20 -20 -20 -20 -20 -20 -20 -20 -20 -20 -20 -20 -20 -20 -20 -20 -20 -20 -20 -20 -20 -20 -20 -20 -20 -20 -20 -20 -20 -20 -20 -20 -20 -20 -12 -20 -20 -20
8 11 4 -20 -20 -20 -20 -20 -20 -20 -20 -20 -20 -20 -20 -20 -20 -20 -20 -20 -20 -20 -20 -20 -20 -20 -20 -20 -20 -20 -20 -20 -20 -20 -20 -20 -20 -20 -20 -20 -20 -19 -20 -20
12 10 8 -20 -20 -20 -20 -20 -20 -20 -20 -20 -20 -20 -20 -20 -20 -20 -20 -20 -20 -20 -20 -20 -20 -20 -20 -20 -20 -20 -20 -20 -20 -20 -20 -20 -20 -20 -20 -20 -20 -20 -20 -20
13 11 8 -20 -20 -20 -20 -20 -20 -20 -20 -20 -20 -20 -20 -20 -20 -20 -20 -20 -20 -20 -20 -20 -20 -20 -20 -20 -20 -20 -20 -20 -20 -20 -20 -20 -20 -20 -20 -20 -20 -20 -20 -20
8 10 7 -20 -20 -20 -20 -20 -20 -20 -20 -20 -20 -20 -20 -20 -20 -20 -20 -20 -20 -20 -20 -20 -20 -20 -20 -20 -20 -20 -20 -20 -20 -20 -20 -20 -20 -20 -20 -20 -20 -20 -20 -20
10 11 -20 -20 -20 -20 -20 -20 -20 -20 -8 -20 -20 -20 -20 -20 -20 -20 -20 -20 -20 -20 -20 -20 -20 -20 -20 -20 -20 -20 -20 -20 -20 -20 -20 -20 -20 -20 -20 -20 -20 -20 -20 -20
11 8 -20 -20 -20 -20 -20 -20 -20 -20 -20 -20 -20 -20 -20 -20 -20 -20 -20 -20 -20 -20 -20 -20 -20 -20 -20 -20 -20 -20 -20 -20 -20 -20 -20 3 -20 -20 -20 -20 -20 -20 -20 -19
1 -20 -20 -20 0 -14 -20 -20 -20 -20 -20 -20 -20 -20 -20 -20 -20 -20 -20 -20 -20 -20 -20 -20 -20 -20 -20 -20 -20 -20 -20 -20 -20 -11 -20 -20 -20 -20 -20 -14 -7 -7 19 15
-20 -20 -20 -20 -19 -20 -20 -20 -20 -20 -13 -20 -20 -20 -20 -20 -20 -20 -20 -20 -20 -20 -20 -20 -20 -20 -20 -20 -20 -20 -20 -20 -20 -12 -15 -20 -20 -14 7 -15 -4 -8 21 2
-20 -20 -20 -20 -20 -20 -20 -20 -20 -20 -20 -20 -20 -20 -20 -20 -20 -20 -20 -20 -20 -20 -20 -20 -20 -20 -20 -20 -20 -20 -20 -20 -20 7 -20 -20 -20 2 -20 -20 -19 -19 -20 9
-20 -20 -20 -20 -20 -20 -20 -20 -20 -20 -19 -20 -20 -20 -20 -20 -20 -20 -20 -20 -20 -20 -20 -20 -20 -20 -20 -20 -20 -20 -20 -20 -20 -20 -20 -20 -20 -20 -20 -20 -4 -4 26 5
-20 -20 -20 -20 -20 -20 -20 -20 -20 -20 -14 2 -20 -20 -20 -20 -20 -20 -20 -20 -20 -20 -20 -20 -20 -20 -20 -20 -20 -4 -20 -15 8 -20 -20 -19 -20 -19 -9 -9 26 22 -12 -20
-20 -20 -20 -20 -20 -20 -20 -20 -20 -20 -20 -20 -20 -20 -20 -20 -20 -20 -20 -20 -20 -20 5 8 -14 -20 -20 -20 -20 -17 -20 -12 -20 -20 -20 19 3 28 6 29 10 -20 -20 -20
5 -2 -20 -20 -20 -20 -20 -20 -20 -20 -20 -16 -20 -20 -20 -20 -20 -20 -20 -20 -20 -20 -19 -4 -20 -20 -20 10 27 13 -20 -1 4 -13 2 6 31 11 31 3 -20 -20 -20 -20
11 8 8 8 -14 -20 -20 -20 -18 -20 -20 8 -20 -20 -20 -20 -20 -20 -20 -20 -20 -20 -20 -16 -9 7 15 35 28 -4 -20 -20 -20 -20 6 -3 15 22 -20 -20 -20 -20 -20 -13
13 14 12 22 21 14 -0 -14 1 -10 -20 -9 -20 -20 -20 -20 -20 -20 -20 -20 -20 -20 -20 -10 -8 -18 14 22 -14 -20 -20 -20 -16 13 -19 2 -8 -20 -20 -20 -20 -20 -20 -20
20 23 24 14 11 10 15 -10 -11 20 8 9 4 -12 -20 -20 -20 -20 -20 -20 -20 -10 -1 8 -10 -20 9 10 -18 -20 -20 -20 -20 -20 -18 -20 -20 -20 -20 -20 -20 -20 -20 -20
27 27 27 20 20 22 15 21 29 25 21 32 20 -7 -17 -20 -20 -20 -20 -2 -16 -13 -20 -20 -3 -1 -18 -20 -20 -20 -20 -20 -20 -20 -20 -20 -20 -20 -20 -20 -20 -20 -20 -20
34 34 30 22 25 27 31 32 27 14 22 29 16 16 14 10 -0 26 29 15 -16 -20 -20 -20 -20 -20 -20 -20 -20 -20 -20 -20 -20 -20 -20 -20 -20 -20 -20 -20 -20 -20 -20 -20
37 32 28 35 30 30 31 25 21 16 2 11 -15 3 26 31 30 31 21 -5 -19 -20 -20 -20 -20 -20 -20 -20 -20 -20 -20 -20 -20 -20 -20 -20 -20 -20 -20 -20 -20 -20 -20 -20
36 36 36 35 26 20 9 -11 -11 -16 -20 -9 13 2 -2 -4 -6 15 9 -3 -12 -20 -20 -20 -20 -20 -20 -20 -20 -20 -20 -20 -20 -20 -20 -20 -20 -20 -20 -20 -20 -20 -20 -20
30 33 23 19 17 6 -18 -16 -10 5 4 -1 -17 -20 -20 -20 -20 -14 -11 -20 -20 -20 -20 -20 -20 -20 -20 -20 -20 -20 -20 -20 -20 -20 -20 -20 -20 -20 -20 -20 -20 -20 -20 -20
16 13 12 8 3 3 10 14 8 0 -4 -18 -15 -20 -19 -20 -20 -20 -20 -20 -20 -20 -20 -20 -20 -20 -20 -20 -20 -20 -20 -20 -20 -20 -20 -20 -20 -20 -20 -20 -20 -20 -20 -20
1 6 10 10 9 10 5 0 -12 -13 -15 -16 -11 -17 -20 -20 -20 -20 -20 -20 -20 -20 -20 -20 -20 -20 -20 -20 -20 -20 -20 -20 -20 -20 -20 -20 -20 -20 -20 -20 -20 -20 -20 -20
-20 -20 -20 4 9 7 1 -5 -6 -8 -20 -20 -20 -20 -20 -20 -20 -20 -20 -20 -20 -20 -20 -20 -20 -20 -20 -20 -20 -20 -20 -20 -20 -20 -20 -20 -20 -20 -20 -20 -20 -20 -20 -20

GFSNW_prec_radar_024.txt.gz
Reflectivity
-3 7 8 1 -20 -20 -20 -20 -20 -20 -20 -20 -20 -20 -20 -20 -20 -20 -20 -20 -20 -20 -20 -20 -20 -20 -20 -20 -20 -20 -20 -20 -20 -20 -20 -20 -20 -20 -20 -20 -20 -20 -20 -20
5 10 10 -20 -20 -20 -20 -20 -20 -20 -20 -20 -20 -20 -20 -20 -20 -20 -20 -20 -20 -20 -20 -20 -20 -20 -20 -20 -20 -20 -20 -20 -20 -20 -20 -20 -20 -20 -20 -20 -20 -20 -8 -20
6 7 7 -17 -20 -20 -20 -20 8 -20 -20 -20 -20 -20 -20 -20 -20 -20 -20 -20 -20 -20 -20 -20 -20 -20 -20 -20 -20 -20 -20 -20 -20 -20 -20 -20 -20 -20 -20 -20 -20 -20 -20 -20
8 6 2 -15 -20 -20 -20 -20 -20 -20 -20 -20 -20 -20 -20 -20 -20 -20 -20 -20 -20 -20 -20 -20 -20 -20 -20 -20 -20 -20 -20 -20 -20 -20 -20 -20 -20 -20 -20 -20 -20 -19 -20 -20
8 1 -5 -20 -20 -20 -20 -20 -20 -20 -20 -20 -20 -20 -20 -20 -20 -20 -20 -20 -20 -20 -20 -20 -20 -20 -20 -20 -20 -20 -20 -20 -20 -20 -20 -20 -20 -20 -20 -20 -20 -20 -20 -20
9 4 2 -20 -20 -20 -20 -20 -20 -20 -20 -20 -20 -20 -20 -20 -20 -20 -20 -20 -20 -20 -20 -20 -20 -20 -20 -20 -20 -20 -20 -20 -20 -20 -20 -20 -20 -20 -20 -20 -20 -20 -20 -20
9 8 -14 -20 -20 -20 -20 -20 -20 6 -19 -20 -20 -20 -20 -20 -20 -20 -20 -20 -20 -20 -20 -20 -20 -20 -20 -20 -20 -20 -20 -20 -10 -20 -18 -12 -20 -20 -20 -20 -20 -20 -20 -20
3 10 -20 -20 -20 -20 -20 -20 -20 -18 24 -20 -20 -20 -20 -20 -20 -20 -20 -20 -20 -20 -20 0 -4 -20 -20 -20 -20 -20 -20 -20 -18 -20 -20 -20 -20 -20 -20 -20 -20 -20 -20 -20
4 -1 -20 -19 10 -19 -20 -20 -20 -20 14 3 -20 -20 -20 -20 -20 -20 -20 -20 -20 -20 -20 9 21 -20 -20 -20 -20 -20 -20 -20 -20 -19 6 1 -20 -20 -20 -20 -18 -20 -20 -20
3 -20 -20 -19 8 -20 -20 -20 -20 -20 -20 -20 -20 -20 -20 -20 -20 -20 -20 -20 -20 -20 -13 16 3 -20 -20 -20 -20 -20 -20 -20 -20 -15 -2 -12 -20 -20 -20 -8 -18 -20 -9 2
-20 -20 -20 -20 -20 -20 -20 -20 -20 -20 -10 -20 -20 -20 -20 -20 -20 -20 -20 -20 -20 -20 15 14 -20 -7 -20 -20 -20 -20 -16 -20 -20 -10 -20 -0 -20 -19 4 14 -19 -3 10 -7
-20 -20 -20 -20 -20 -20 -20 -20 -20 -20 -20 -20 -20 -20 -20 -20 -20 -20 -20 -20 -20 -20 -3 0 -19 14 3 6 -20 -20 -20 -20 -18 -17 -20 -20 -20 -20 -4 9 -16 -19 14 -4
-20 -20 -20 -20 -20 -20 -20 -20 -20 -20 -0 -20 -20 -20 -20 -20 -20 -20 -20 -20 -20 -20 -20 -20 -20 16 -20 -11 -20 -20 -20 -20 -20 -8 -20 -18 8 -20 -20 -16 -15 3 -3 -20
-20 -20 -20 -20 -20 -20 -20 -20 -20 -20 -10 24 -20 -20 -20 -20 -20 -20 -20 -20 -20 -20 -20 -6 13 19 -20 -14 -5 -9 -10 -6 -17 -5 -20 -6 2 -17 -20 -19 0 10 -9 -20
-20 -20 -20 -20 -20 -20 -20 -20 -20 -20 -20 17 -20 -20 -20 -20 -20 -20 -20 -20 -20 -20 11 22 16 -20 -17 -20 -20 -20 -20 -12 -3 3 6 7 -7 -15 7 13 -7 -18 -20 -20
-20 -20 -20 -20 -20 -20 -20 -20 -20 -20 -20 -14 21 -20 -20 -20 -20 -20 -20 -20 -20 -20 -14 4 -12 -20 3 1 -6 -20 -20 -20 9 -20 15 -10 -14 24 -16 -20 -20 -20 -20 -20
-13 -18 10 -15 -19 -20 -1 -20 -20 -20 -20 12 21 -18 -20 -20 -20 -20 -20 -16 4 12 -20 1 -20 -20 -2 5 -0 -20 -11 -7 -11 -18 -19 12 20 -5 -20 -20 -20 -20 -20 -20
-2 3 3 9 9 -19 -20 -20 -20 -20 -20 -19 18 -5 -20 -20 -20 -11 -20 -20 -20 -20 -20 -6 -20 -20 3 19 -2 -20 -20 -20 -19 -6 -7 -19 -20 -20 -20 -20 -20 -20 -20 -20
6 13 19 14 12 13 -5 -4 -20 -20 -20 21 17 8 10 -20 -20 -20 -20 -20 14 -20 6 -11 -19 -9 -5 -20 -20 -20 -14 -14 -19 -20 -20 -20 -20 -20 -20 -20 -20 -20 -20 -20
22 16 17 19 14 23 -1 0 12 -18 -19 -10 7 -4 -4 -5 -11 -14 7 -19 7 7 -18 -9 10 12 -20 -20 -20 -18 -20 -20 -20 -20 -20 -20 -20 -20 -20 -20 -20 -20 -20 -20
37 30 26 20 25 12 7 17 21 11 28 16 6 13 6 -14 -9 2 -10 22 14 -5 -8 -4 1 -14 -20 -20 -20 -20 -20 -20 -20 -20 -20 -20 -20 -20 -20 -20 -20 -20 -20 -20
36 31 20 28 30 30 30 32 31 15 14 2 9 16 5 9 17 29 28 19 -2 -6 -20 0 -5 -20 -20 -20 -20 -20 -20 -20 -20 -20 -20 -20 -20 -20 -20 -20 -20 -20 -20 -20
35 32 32 34 30 26 19 13 11 11 4 -5 -6 13 20 30 23 8 -0 -6 2 -20 -2 -19 -19 -20 -20 -20 -20 -20 -20 -20 -20 -20 -20 -20 -20 -20 -20 -20 -20 -20 -20 -20
37 36 29 32 25 31 25 14 -8 0 20 8 -1 -4 -12 4 3 9 -0 -12 -19 0 -1 -20 -15 -20 -20 -20 -20 -20 -20 -20 -20 -20 -20 -20 -20 -20 -20 -20 -20 -20 -20 -20
26 25 23 21 20 16 25 26 16 7 15 5 -3 -14 -13 -1 8 -4 -10 -9 -6 -9 -20 -20 -20 -20 -20 -20 -20 -20 -20 -20 -20 -20 -20 -20 -20 -20 -20 -20 -20 -20 -20 -20
12 15 16 16 16 14 18 13 9 10 6 4 -5 -18 -20 -20 -18 -20 -17 -20 -20 -20 -20 -20 -20 -20 -20 -20 -20 -20 -20 -20 -20 -20 -20 -20 -20 -20 -20 -20 -20 -20 -20 -20
-2 4 9 9 10 8 9 10 11 9 8 6 4 -2 2 -9 -20 -20 -20 -20 -20 -20 -20 -20 -20 -20 -20 -20 -20 -20 -20 -20 -20 -20 -20 -20 -20 -20 -20 -20 -20 -20 -20 -20

GFSNW_prec_radar_027.txt.gz
Reflectivity
3 8 8 10 -20 -20 6 -20 -20 -20 -20 -20 -20 -20 -20 -20 -20 -20 -20 -20 -20 -20 -20 -20 -20 -20 -20 -20 -20 -20 -20 -20 -20 -20 -20 -20 -20 -20 -20 -20 -20 -20 -20 -20
-7 -4 -11 8 -20 -10 -20 -20 -20 -20 -20 -20 -20 -20 -20 -20 -20 -20 -20 -20 -20 -20 -20 -20 -20 -20 -20 -20 -20 -20 -20 -20 -20 -20 -20 -20 -20 -20 -20 -20 -20 -20 -20 -20
-12 -16 -13 -11 -20 -20 -17 -20 -20 -20 -20 -20 -20 -20 -20 -20 -20 -20 -20 -20 -20 -20 -20 -20 -20 -20 -20 -20 -20 -20 -20 -20 -20 -20 -20 -20 -20 -20 -20 -20 -20 -20 -20 -20
-5 -14 -20 -20 -20 -20 -19 -20 -20 -20 -20 -20 -20 -20 -20 -20 -20 -20 -20 -20 -20 -20 -20 -20 -20 -20 -20 -20 -20 -20 -20 -20 -20 -20 -20 -20 -20 -20 -20 -20 -20 2 -20 -20
-6 -8 -4 -20 -20 -20 -20 -20 -20 -20 -20 -20 -20 -20 -20 -20 -20 -20 -20 -20 -20 -20 -20 -20 -20 -20 -20 -20 -20 -20 -20 -20 -20 -20 -20 -20 -20 -20 -20 -20 -20 -20 -20 -20
-17 5 -14 -20 -20 -9 -20 -20 -20 -20 -20 -20 -20 -20 -20 -20 -20 -20 -20 -20 -20 -20 -20 -20 -20 -20 -20 -20 -20 -20 -20 -20 -20 -20 -20 -20 -20 -20 -20 -20 -20 -20 -12 -17
5 7 -20 -20 -20 -20 -20 -20 -20 -4 -20 -20 -20 -20 -20 -20 -20 -20 -20 -20 -19 -20 -20 -20 -20 -20 -20 -20 -20 -20 -20 -20 -20 -20 -20 -13 -20 -20 -20 -20 -20 -20 -20 -20
9 6 -20 5 -10 -20 -20 -20 -20 -20 24 -20 -20 -20 -20 -20 -20 -20 -20 -20 -20 -20 -20 -20 -20 -2 -20 -6 -20 -20 -20 -13 -20 -6 -20 -20 -20 -20 -20 -20 -20 -20 -20 -20
-2 -20 -20 4 -12 -20 -20 -20 -20 -20 18 -10 -20 -20 -20 -20 -20 -20 -20 -20 -20 -20 -20 -4 -9 -20 -20 -20 -20 -20 -20 -13 -20 -20 -4 -19 -20 -20 -20 -20 -9 -20 -20 -20
5 -20 -20 -20 -20 -20 -20 -20 -20 -20 -20 -20 -20 -20 -20 -20 -20 -20 -20 -20 -20 -20 -10 19 8 -20 -20 -20 -20 -20 -20 -8 -9 -5 -3 -14 -20 -20 -20 3 5 -20 -13 -16
-20 -20 -20 -20 -20 -20 -12 -20 -20 -20 -3 -20 -20 -20 -20 -20 -20 -20 -20 -20 -20 -20 5 -4 -16 -20 -20 -20 -20 -20 -20 -20 -20 -20 -7 -11 -20 -15 5 12 -20 -5 2 -20
-20 -20 -20 -20 -20 -20 -20 -20 -20 -20 -20 -20 -20 -20 -20 -20 -20 -20 -20 -20 -20 -20 2 -6 -18 16 15 -11 -20 -20 -20 -19 -4 -8 -15 -5 5 19 -9 -18 -20 -20 -20 -20
-20 -20 -20 -20 -20 -20 -20 -20 -20 -20 -16 -20 -20 -20 -20 -20 -20 -20 -20 -20 -20 -20 -20 -20 -16 5 -20 -11 -20 -20 -20 -20 -17 4 -20 -20 -8 22 -10 -17 -18 -20 -20 -20
-20 -20 -20 -20 -20 -20 -20 -20 -20 -20 -11 25 -20 -20 -20 -20 -20 -20 -20 -20 -20 -20 -20 6 11 10 -20 3 -20 -20 -20 -20 -20 3 -9 -20 -20 -20 13 21 -20 -20 -20 -20
-20 -20 -20 -20 -20 -20 -20 -20 -20 -20 -20 12 -20 -20 -20 -20 -20 -20 -20 -20 -20 -20 2 16 5 -8 0 -11 -9 -20 -20 -20 2 4 -14 -11 35 27 5 -20 -20 -20 -20 -20
-20 -20 -20 -20 -20 -20 -20 -20 -20 -20 -20 -14 13 -20 -20 -20 -20 -20 -20 -17 -2 6 0 -3 -20 -6 1 -1 1 -20 -20 -20 -20 -1 -20 -3 -3 -20 -20 -20 -20 -20 -20 -20
-20 -20 -9 -20 -20 1 -4 -10 -14 -13 -20 9 17 -18 -20 -20 -20 -20 -4 -20 3 5 9 -8 -17 7 -9 18 -8 -20 -20 -20 -20 -20 -18 -19 -20 -20 -20 -20 -20 -20 -20 -20
-20 -18 -6 -12 -8 -12 -3 -20 -20 -20 -20 -19 16 -3 -20 -20 -20 -17 -20 -8 -10 11 11 -14 -18 -16 -4 -5 -20 -20 -20 -20 -20 -20 -18 -1 -20 -20 -20 -20 -20 -20 -20 -20
-18 -10 20 14 4 -17 -12 -16 -20 -20 -20 17 17 -15 -20 -20 -13 -10 -4 3 16 -12 11 -12 -14 -14 -15 -20 -20 -20 -20 -20 -20 19 7 -20 -20 -20 -20 -20 -20 -20 -20 -20
13 10 6 11 2 19 -18 -19 -19 -20 -18 10 16 -7 -19 -15 -12 0 -11 -4 14 11 -20 -20 -4 1 -16 -20 -20 -20 -20 -10 -18 -20 -20 -20 -20 -20 -20 -20 -20 -20 -20 -20
32 25 23 15 25 -11 21 28 9 -6 -10 -16 -20 -20 -20 -20 1 1 -19 10 -1 -6 3 -0 2 -4 -20 -20 -20 -20 -20 -20 -20 -20 -20 -20 -20 -20 -20 -20 -20 -20 -20 -20
32 30 30 28 14 26 30 31 6 -7 -15 -6 8 -4 -17 -17 -20 -18 16 30 23 6 -18 3 -5 -13 -20 -20 -20 -20 -20 -20 -20 -20 -20 -20 -20 -20 -20 -20 -20 -20 -20 -20
33 33 35 36 30 27 25 10 4 -14 -13 -5 16 13 13 22 24 25 25 20 16 -16 5 -3 -10 -20 -20 -20 -20 -20 -20 -20 -20 -20 -20 -20 -20 -20 -20 -20 -20 -20 -20 -20
33 35 29 30 28 34 31 28 -1 -4 -5 -19 -12 14 23 29 30 31 27 20 -15 5 3 -12 -20 -20 -20 -20 -20 -20 -20 -20 -20 -20 -20 -20 -20 -20 -20 -20 -20 -20 -20 -20
30 30 22 23 30 29 27 27 10 5 12 19 27 23 18 24 18 16 11 -1 1 -3 5 -19 -20 -20 -20 -20 -20 -20 -20 -20 -20 -20 -20 -20 -20 -20 -20 -20 -20 -20 -20 -20
26 28 22 27 26 25 29 31 23 26 24 16 21 22 19 10 10 -1 7 7 -8 2 -20 -20 -20 -20 -20 -20 -20 -20 -20 -20 -20 -20 -20 -20 -20 -20 -20 -20 -20 -20 -20 -20
10 -0 18 21 26 24 24 29 34 26 30 24 23 12 15 13 10 4 4 -1 -4 -20 -20 -20 -20 -20 -20 -20 -20 -20 -20 -20 -20 -20 -20 -20 -20 -20 -20 -20 -20 -18 1 -20